Location: Unspecified
(33.9239°N, 118.0544°W)
Time: 18:50:36
(UTC-07:00)

Resurs 1-4 Rocket - Visible Passes

Search period start: 30 June 2015 00:00
Search period end: 10 July 2015 00:00
Orbit: 801 x 813 km, 98.4° (Epoch: 30 June)

Date Brightness Start Highest point End Pass type
(mag) Time Alt. Az. Time Alt. Az. Time Alt. Az.
30 Jun 2.1 04:26:44 10° N 04:32:02 77° WNW 04:36:56 12° SSW visible
01 Jul 2.5 04:02:19 10° NNE 04:07:33 61° E 04:12:06 14° S visible
02 Jul 3.5 03:38:13 10° NNE 03:42:58 34° E 03:47:17 12° SSE visible
03 Jul 4.3 03:14:36 10° NE 03:18:16 20° E 03:22:06 10° SE visible
03 Jul 2.7 04:53:22 10° N 04:58:21 42° WNW 05:03:15 10° SW visible
04 Jul 4.8 02:52:44 10° E 02:53:25 10° E 02:54:33 10° E visible
04 Jul 2.1 04:28:39 10° N 04:33:57 73° WNW 04:38:42 13° SSW visible
05 Jul 2.4 04:04:13 10° NNE 04:09:28 64° E 04:13:52 15° S visible
06 Jul 3.4 03:40:04 10° NNE 03:44:53 36° E 03:49:02 13° SSE visible
07 Jul 4.2 03:16:23 10° NE 03:20:11 21° E 03:24:09 10° SE visible
07 Jul 2.7 04:55:19 10° N 05:00:14 39° WNW 05:05:05 10° SW visible
08 Jul 4.7 02:54:03 10° ENE 02:55:22 11° E 02:57:05 10° ESE visible
08 Jul 2.1 04:30:34 10° N 04:35:50 69° WNW 04:40:27 13° SSW visible
09 Jul 2.3 04:06:06 10° NNE 04:11:22 68° E 04:15:37 16° S visible
